GFSNE_prec_cloud_030.txt.gz
Cloud_Cover
19 90 100 100 100 100 100 100 100 64 5 23 5 5 2 0 2 1 1 0 0 0 0 1 5 15 64 100 100 100 100 100 100 100 100 100 100 100
100 100 83 69 77 100 100 100 100 100 90 14 5 5 2 0 0 0 0 0 0 0 4 4 5 5 5 22 33 11 7 27 94 100 100 100 100 9
99 99 90 100 100 100 100 100 100 100 100 66 7 0 0 0 0 0 0 0 0 0 0 5 5 0 4 5 5 5 5 5 92 78 46 89 59 5
100 94 92 78 87 100 100 100 100 91 18 4 0 0 0 0 0 0 0 0 0 2 5 5 0 5 5 9 86 14 5 5 15 6 38 6 5 5
98 100 100 100 100 100 99 70 5 5 2 5 4 0 0 0 0 1 4 1 1 2 0 0 0 4 5 5 5 8 42 94 100 32 5 5 5 5
100 100 100 98 65 9 5 5 4 0 0 5 5 5 5 1 5 5 33 5 3 0 0 0 4 5 5 5 0 5 99 99 79 6 5 4 5 0
100 100 72 4 5 5 2 1 4 5 5 5 5 5 5 5 5 5 35 5 0 0 0 4 3 0 0 0 0 10 100 100 97 48 5 5 5 0
98 5 5 0 0 0 4 5 5 4 5 5 5 5 5 5 5 5 6 48 85 5 100 5 5 5 2 2 0 17 100 100 76 25 94 26 5 2
5 5 5 0 0 1 5 5 5 0 0 5 5 8 35 3 53 68 91 95 90 12 84 83 5 5 0 0 0 33 100 100 52 91 4 3 6 36
82 21 5 0 0 5 5 5 3 3 0 0 4 1 4 5 94 99 100 96 72 48 75 92 29 5 3 6 87 66 100 96 83 56 44 45 100 62
62 7 0 1 5 5 5 5 5 5 0 0 2 4 5 5 88 100 80 94 83 34 66 100 23 72 5 5 98 100 100 94 51 4 100 98 100 99
5 2 3 4 1 4 5 5 5 5 5 5 0 5 0 0 5 55 77 100 100 88 62 100 77 100 13 6 21 20 6 98 83 16 100 100 100 100
5 5 5 1 4 5 5 5 9 5 5 5 5 5 5 5 4 5 5 63 100 99 95 100 99 100 99 12 12 96 100 99 100 99 100 100 100 100
5 19 5 5 5 9 32 8 6 5 34 6 5 5 42 5 5 5 5 11 8 43 28 100 100 100 99 54 85 100 100 100 100 100 100 100 100 100
74 86 73 48 5 34 56 9 22 48 41 44 5 5 27 5 5 5 5 89 23 8 100 100 100 100 100 65 72 100 100 100 100 100 100 100 100 100
81 100 85 99 6 44 53 8 93 88 80 33 30 68 49 5 5 5 5 82 85 73 93 46 100 100 98 42 61 96 100 100 100 100 100 100 100 100
100 100 89 96 72 60 66 60 100 85 80 48 99 100 58 51 5 5 5 55 95 100 83 78 85 100 96 78 32 98 100 100 100 100 100 100 100 100
100 86 84 88 100 61 88 83 90 71 39 75 94 100 34 72 64 5 5 10 79 76 93 100 99 20 88 98 96 100 100 100 100 100 100 100 100 100
100 99 100 90 78 85 100 78 100 27 13 49 55 68 52 67 67 60 17 5 10 79 69 95 100 80 100 99 83 93 100 100 100 90 100 100 100 100
95 100 92 91 100 70 97 74 77 46 73 77 94 60 67 78 73 66 52 96 22 45 95 87 100 100 100 99 100 100 100 100 100 89 92 100 100 100
100 100 100 100 100 80 99 85 61 13 35 100 92 70 70 75 65 44 75 74 70 7 98 88 100 100 98 99 98 100 100 97 100 92 98 100 97 100
100 100 100 100 100 100 96 100 100 95 97 99 68 88 94 79 35 45 58 94 63 57 68 100 100 100 100 100 100 99 99 75 79 96 100 29 36 76
100 100 100 100 100 100 100 100 100 100 100 97 90 83 99 68 13 56 77 72 75 5 5 100 100 100 100 100 100 100 100 100 73 60 44 86 15 75

GFSNE_prec_cloud_033.txt.gz
Cloud_Cover
75 13 45 98 99 100 100 100 100 100 100 100 100 100 99 42 38 0 0 0 1 3 0 4 5 10 69 92 94 100 100 100 100 100 100 100 100 98
91 44 70 50 61 84 83 76 100 93 77 35 5 5 5 0 0 0 0 0 0 0 5 5 5 62 85 58 29 98 84 100 100 99 100 83 100 95
27 5 5 5 67 100 97 100 100 99 61 5 4 0 0 0 0 0 0 0 0 0 5 5 5 5 5 5 5 5 5 5 5 16 6 93 100 100
5 92 99 100 100 100 100 100 87 70 85 5 0 0 0 0 0 2 0 0 0 0 5 4 3 5 5 5 78 33 5 5 5 5 5 11 91 98
90 100 100 100 91 19 88 60 5 5 5 5 5 0 4 0 0 1 5 1 3 2 0 0 0 1 5 19 99 5 5 5 5 48 5 51 27 44
91 74 15 4 5 5 3 3 1 1 5 5 5 4 5 2 5 5 5 3 0 0 0 1 5 5 5 5 2 0 3 5 11 79 80 37 70 5
6 5 1 5 5 5 0 0 2 5 5 5 5 5 5 5 5 4 5 5 5 1 4 4 5 5 5 5 4 0 0 5 46 53 100 100 100 6
5 27 5 5 5 5 0 0 3 5 5 5 5 5 5 5 5 5 22 99 95 5 18 27 5 5 5 5 5 5 5 5 19 100 100 100 69 5
5 5 5 46 5 3 0 5 5 5 5 5 5 5 5 5 10 80 95 99 96 21 45 87 5 5 5 4 1 100 96 28 39 100 81 85 89 5
63 5 5 5 3 1 5 5 5 5 5 0 1 5 5 5 14 95 98 88 32 5 5 91 5 5 5 5 4 75 99 64 48 100 83 96 53 38
73 5 5 2 0 4 5 5 5 5 5 5 5 5 5 4 4 5 5 98 94 20 5 91 5 5 5 5 5 94 100 5 9 97 76 100 100 92
74 50 5 5 5 5 5 5 5 5 5 5 5 5 4 5 5 3 5 99 100 88 5 53 51 80 80 5 8 64 10 48 58 100 100 100 100 100
99 50 14 5 5 5 5 5 5 5 5 5 5 5 5 5 5 1 4 6 99 100 6 97 52 92 99 39 6 5 28 99 100 100 100 98 100 100
100 48 88 66 38 64 12 5 5 7 41 64 71 7 5 5 5 5 5 5 80 94 5 90 99 100 100 83 86 12 100 100 100 85 84 100 100 100
79 100 99 98 100 70 90 61 60 53 60 91 10 14 7 6 7 5 5 5 5 5 5 100 100 100 100 99 99 86 98 100 100 100 100 100 100 100
100 97 100 96 100 82 99 60 86 56 23 32 29 24 11 78 45 6 15 5 33 86 64 99 100 97 83 93 100 80 100 100 100 100 100 100 100 100
98 100 99 100 100 99 100 86 100 42 65 68 52 5 52 96 55 32 55 38 77 38 98 96 72 59 64 96 85 95 87 100 100 100 100 100 100 100
100 88 90 92 100 100 100 100 94 78 34 29 56 7 89 41 63 37 59 78 75 5 79 98 100 98 36 63 76 93 98 100 100 100 100 100 100 100
100 90 100 100 100 100 100 100 100 68 48 44 10 45 94 64 78 67 64 78 55 5 19 89 55 91 100 94 71 93 100 100 100 100 100 100 100 100
100 100 99 99 100 100 100 100 100 100 57 53 56 90 100 97 80 76 59 100 96 13 5 87 98 99 100 99 97 97 100 100 100 100 100 100 100 100
100 100 73 100 100 100 100 100 100 100 70 81 50 77 100 100 94 70 60 62 93 14 5 85 100 99 100 100 99 90 100 100 100 100 100 100 100 100
100 100 88 97 100 100 100 100 100 100 99 100 97 84 100 100 87 63 70 99 84 84 9 26 100 99 100 100 100 86 100 100 100 100 100 100 100 100
93 98 100 100 100 100 100 100 100 100 100 91 96 68 100 100 68 53 64 83 89 14 17 5 73 100 100 100 100 100 100 99 100 100 91 100 100 100

GFSNE_prec_cloud_036.txt.gz
Cloud_Cover
5 9 26 14 38 60 57 5 99 100 99 57 6 6 11 7 3 0 0 0 0 0 1 4 5 49 55 70 93 100 100 100 100 100 100 100 100 100
82 100 73 54 100 73 11 8 100 100 96 5 10 35 5 4 0 0 0 0 0 0 5 5 5 9 83 89 60 64 74 100 100 100 100 100 100 100
100 96 90 89 5 5 5 5 5 21 51 5 5 5 5 0 0 0 0 0 0 0 5 5 6 6 11 5 5 5 5 29 100 100 100 100 100 100
70 100 86 5 5 5 5 5 5 5 5 5 5 1 0 0 0 0 0 0 0 0 5 5 5 5 5 5 5 5 5 87 89 100 99 12 5 8
95 5 5 5 5 0 3 5 5 5 5 3 0 0 0 0 0 1 4 1 0 4 2 5 5 4 5 5 18 5 5 56 47 7 5 5 10 38
62 6 5 5 0 2 5 5 5 0 0 4 5 3 0 0 4 5 4 0 4 0 1 2 3 5 5 5 5 5 5 5 5 5 5 5 5 33
82 39 5 5 5 5 39 41 5 0 4 5 5 0 0 3 3 5 5 5 5 4 5 4 5 5 5 5 5 5 5 5 5 5 5 5 5 26
37 5 5 5 5 41 22 4 0 5 5 5 5 5 5 2 5 5 37 98 98 55 5 5 5 5 5 5 5 5 5 74 95 6 5 5 64 98
6 84 8 5 5 5 3 0 3 5 5 5 5 4 4 5 6 12 90 98 100 62 45 46 5 5 5 5 5 5 5 7 74 6 10 5 10 64
5 99 63 87 13 5 5 4 5 5 5 5 1 5 5 5 59 5 8 32 54 26 5 94 5 5 5 5 5 5 5 5 5 8 7 7 7 81
89 100 100 99 94 79 5 4 1 5 4 2 5 5 5 11 5 5 5 60 98 77 37 90 10 5 5 5 5 4 70 80 5 40 95 100 84 22
70 100 100 94 100 100 19 5 5 5 5 5 7 5 5 5 5 5 5 84 98 54 48 12 66 99 31 5 7 11 5 5 15 98 100 100 100 100
6 53 91 100 100 99 61 9 72 50 84 89 99 39 26 5 5 5 5 5 87 100 9 100 91 96 100 83 7 5 10 5 5 82 83 97 97 100
5 19 83 76 100 100 93 79 86 63 96 100 100 83 89 13 5 5 5 5 5 45 5 79 100 99 100 92 96 5 5 37 48 97 100 94 92 99
6 5 6 26 79 100 99 96 100 71 64 100 100 100 80 54 10 36 5 5 5 5 5 64 100 100 98 96 97 83 94 15 90 100 100 100 100 100
16 91 73 96 100 100 100 100 100 97 80 100 100 100 54 46 6 76 5 5 41 5 4 18 100 100 16 70 100 99 86 94 100 100 100 100 100 100
100 90 100 100 100 100 89 100 100 100 100 100 100 100 63 20 24 9 5 18 83 49 5 14 5 59 39 18 99 96 100 74 96 100 100 100 100 100
100 100 100 96 98 100 100 100 100 100 100 88 100 100 74 27 29 5 23 15 94 63 12 5 43 26 66 45 88 96 95 98 98 100 100 100 100 100
100 100 100 100 100 97 100 100 100 100 100 100 100 100 74 66 61 34 21 31 5 58 8 5 43 94 100 100 63 97 100 97 100 100 100 100 100 100
98 100 100 100 100 100 91 100 100 100 81 100 100 100 77 62 55 47 32 62 10 81 30 5 67 92 100 84 95 100 100 100 100 100 100 100 100 100
99 97 100 100 100 100 87 100 100 100 100 100 100 100 100 96 80 72 48 47 53 77 37 5 36 87 99 100 100 99 89 100 100 100 100 100 100 100
99 100 100 100 100 90 100 100 100 100 100 100 100 100 100 99 89 88 72 19 13 67 32 5 11 99 91 100 96 93 98 98 99 100 100 100 100 100
100 100 100 100 100 100 98 100 100 100 100 100 100 100 100 100 96 92 63 31 56 59 5 5 5 85 100 100 100 100 86 89 89 60 63 100 100 100

GFSNE_prec_cloud_039.txt.gz
Cloud_Cover
20 50 18 5 5 5 5 4 13 52 5 88 73 40 5 5 0 0 0 0 0 0 0 0 5 5 5 22 40 75 100 100 100 100 100 100 100 99
99 100 93 18 5 4 5 5 24 96 91 5 41 52 5 3 0 0 0 0 0 0 2 5 5 5 5 59 73 48 56 76 100 100 100 100 100 100
100 100 100 44 5 5 7 5 10 53 6 5 31 5 2 2 3 1 0 0 0 0 5 4 5 5 26 5 5 5 5 5 40 83 84 97 100 100
94 79 81 15 66 5 5 5 5 5 5 5 5 5 5 5 3 0 0 0 0 0 0 5 5 6 5 5 5 5 42 70 73 92 100 100 100 100
65 82 89 77 92 58 24 5 5 5 5 5 5 5 5 5 5 0 0 0 0 0 0 4 5 5 5 5 5 5 5 5 43 63 18 39 58 75
100 100 100 100 100 42 22 5 5 5 5 5 5 5 5 5 5 0 0 0 2 4 5 33 4 5 5 5 5 5 5 5 6 36 99 5 5 5
100 100 100 100 99 50 5 5 5 5 5 5 5 5 5 5 0 1 5 4 5 5 6 100 40 5 5 5 5 5 5 5 5 67 14 5 5 5
100 100 100 100 36 5 5 5 5 5 5 5 5 5 5 5 0 5 13 70 7 5 20 89 55 5 5 5 0 5 5 72 29 47 100 72 5 5
100 98 100 64 100 5 27 40 5 5 2 5 6 5 18 1 5 18 90 100 85 36 21 60 5 5 5 5 4 5 5 5 5 5 5 5 5 5
99 99 17 28 94 71 100 92 5 13 5 9 5 5 2 5 6 94 100 99 97 82 70 38 32 69 23 5 2 4 5 5 5 5 5 5 97 99
76 72 12 5 18 98 96 76 95 75 29 5 5 5 5 5 6 90 100 100 94 78 39 93 91 92 72 14 83 29 67 5 5 5 5 5 82 100
74 40 14 5 5 37 100 69 83 22 83 5 5 5 5 5 55 50 99 100 100 99 56 81 100 100 76 34 99 98 100 98 6 5 5 5 5 22
7 5 5 5 5 5 10 93 100 100 87 53 18 6 5 21 77 87 98 100 100 100 100 95 100 100 100 97 81 100 100 99 84 5 5 5 96 89
5 5 5 5 5 63 91 94 82 100 100 100 99 100 49 71 80 96 100 92 99 90 99 99 99 100 100 100 95 87 96 97 98 37 58 86 99 100
8 5 5 5 5 18 95 100 100 100 100 100 98 100 79 92 93 100 93 100 36 71 36 65 97 100 100 100 98 96 99 76 85 78 100 100 100 100
100 84 97 91 100 100 100 100 100 100 100 100 100 99 100 100 100 100 99 99 88 72 74 22 5 74 99 98 99 98 100 100 92 100 100 100 100 100
94 100 100 100 100 100 100 100 100 100 100 100 100 100 100 100 100 93 97 97 95 100 98 100 17 5 89 6 91 100 100 96 100 100 100 100 100 100
100 100 98 100 100 100 100 100 100 100 100 100 100 100 100 100 100 100 100 100 100 97 95 97 19 95 100 96 43 100 100 100 100 100 100 100 100 100
66 100 100 100 100 100 100 100 100 100 100 100 100 100 100 100 100 99 100 100 99 98 95 100 48 96 100 100 97 68 99 96 100 100 100 100 100 100
76 100 100 100 99 93 100 100 100 100 100 100 100 100 100 100 100 99 100 100 98 81 82 83 5 87 100 100 100 98 91 100 100 100 100 100 100 100
98 99 99 100 100 100 100 100 100 100 100 100 100 100 100 100 100 100 94 72 52 57 84 73 5 5 67 100 100 97 99 98 100 99 100 100 100 100
100 100 94 97 100 100 100 100 100 100 100 100 100 100 100 100 100 100 95 100 88 72 89 41 5 5 81 100 100 98 100 100 79 100 100 100 100 100
100 100 100 100 100 100 100 100 100 100 100 100 100 100 100 100 100 100 100 100 96 68 87 25 5 5 58 100 99 100 100 100 100 100 100 100 100 99

GFSNE_prec_cloud_042.txt.gz
Cloud_Cover
6 10 86 99 93 23 5 7 43 35 5 17 28 97 93 100 100 62 5 0 0 0 0 0 0 1 5 5 5 26 94 100 100 100 100 100 100 100
100 93 80 100 100 91 93 100 66 14 44 37 21 83 97 100 96 5 5 2 0 0 0 0 5 5 5 5 5 56 61 26 65 93 100 100 100 100
100 96 98 91 100 100 100 100 99 92 86 80 66 83 91 97 60 5 5 0 0 0 0 0 5 5 5 5 5 5 5 9 59 100 100 100 100 100
100 61 100 100 100 100 100 100 100 100 100 61 63 22 95 95 5 5 5 0 0 0 0 0 2 5 5 5 5 5 5 5 5 52 83 100 100 100
100 100 100 100 100 100 100 100 100 100 100 100 70 96 73 16 46 19 5 0 0 0 0 0 5 2 5 5 5 5 5 5 5 68 65 34 60 95
100 100 100 100 100 100 100 100 100 100 100 100 100 94 36 55 50 13 3 0 0 0 0 4 5 5 5 4 2 4 5 5 30 80 64 6 5 12
100 100 100 100 100 100 100 100 100 100 100 100 99 97 51 78 43 10 0 2 1 5 5 7 59 76 100 100 74 72 46 22 5 94 91 27 5 36
100 100 100 100 100 100 95 83 100 63 98 100 100 100 72 65 66 5 3 5 4 5 5 5 18 62 100 100 95 1 0 5 5 33 90 5 32 97
97 98 100 100 74 78 72 95 65 5 5 22 52 76 84 55 57 4 5 5 5 10 5 5 29 76 100 100 83 4 0 5 5 5 5 5 18 5
37 19 85 90 83 40 64 65 95 84 44 5 5 5 18 44 5 5 8 32 40 56 65 10 44 91 100 100 57 5 5 5 5 5 5 5 5 5
5 23 48 37 10 14 6 53 87 79 100 14 8 5 5 5 5 5 6 91 91 27 53 85 83 82 100 100 100 99 6 5 6 55 5 5 5 5
14 39 5 17 15 5 13 96 87 66 90 100 21 10 55 58 5 8 41 100 100 90 53 72 100 97 100 98 100 97 100 100 74 100 29 5 5 18
50 22 80 83 5 2 5 98 70 66 95 71 100 100 99 87 100 100 100 100 100 97 54 78 100 100 100 100 100 100 97 84 96 100 100 98 50 44
82 28 75 78 64 14 48 5 20 100 100 100 100 100 100 100 100 100 100 100 100 94 72 96 100 100 100 100 100 100 100 100 100 69 83 62 26 100
71 10 34 100 100 97 31 86 93 100 98 100 100 96 100 100 100 100 100 100 100 100 17 90 100 100 100 100 100 100 100 99 85 73 56 95 88 100
5 60 25 77 100 98 100 87 100 98 100 99 100 100 100 100 100 100 100 100 100 100 99 100 100 100 100 100 90 100 100 100 100 100 100 99 100 100
42 5 5 5 90 65 100 99 100 100 100 98 100 100 100 100 100 100 100 100 100 100 100 100 100 100 100 100 100 100 100 100 100 100 100 100 100 100
72 56 6 5 5 32 100 100 100 100 100 100 100 100 100 100 100 100 100 100 100 100 100 100 100 100 100 100 87 100 100 100 100 100 100 100 100 100
100 100 100 97 97 90 100 100 100 100 100 100 100 100 100 100 100 100 100 100 100 100 100 100 100 100 100 100 100 43 100 100 100 100 100 100 100 100
100 100 100 100 86 94 100 100 100 100 92 100 100 100 100 100 100 100 100 100 100 100 95 83 100 99 100 100 100 92 66 83 100 100 100 100 100 100
100 100 100 100 100 99 100 97 100 100 100 100 100 100 100 100 100 100 100 100 93 99 68 68 100 9 22 97 100 87 100 79 55 91 100 100 100 100
100 100 100 100 100 100 100 100 100 100 100 100 100 100 100 100 100 100 100 100 96 99 78 74 79 5 97 100 100 100 93 85 58 70 35 100 100 100
100 100 100 100 100 100 100 100 100 100 100 100 100 100 100 100 100 100 100 100 100 100 67 61 86 5 90 100 85 100 100 84 99 100 96 48 100 100

GFSNE_prec_cloud_048.txt.gz
Cloud_Cover
100 100 98 100 74 100 100 100 86 85 98 78 90 100 100 96 41 5 5 5 5 2 0 0 0 0 0 0 0 4 5 5 5 64 100 100 100 100
100 100 100 100 99 77 100 100 100 45 8 38 30 67 95 65 44 7 29 5 5 5 0 0 0 0 0 0 0 0 5 5 6 66 100 100 100 97
100 99 100 100 100 93 8 64 80 20 54 5 5 7 9 26 98 100 96 5 1 0 4 0 0 0 0 0 0 0 0 5 5 30 92 100 100 100
100 100 99 94 24 49 99 95 76 100 98 5 5 5 5 5 5 5 5 5 1 0 0 0 0 0 0 0 0 0 0 0 5 5 5 28 97 100
100 98 79 100 100 100 95 100 99 100 89 86 8 5 5 30 5 5 5 5 5 0 5 5 0 0 0 0 5 0 0 5 5 5 5 5 5 81
100 80 100 100 100 99 84 71 28 39 81 100 98 10 20 27 43 77 38 5 5 5 5 5 0 0 5 5 3 4 2 88 96 8 5 5 5 5
54 97 100 84 7 6 5 5 7 14 42 72 31 91 85 100 100 100 100 71 76 4 1 0 0 4 5 4 5 5 5 6 32 10 5 5 2 5
100 100 71 5 5 5 5 5 5 5 5 5 5 5 5 5 94 99 87 36 40 2 5 0 0 0 3 5 36 100 8 6 100 16 5 0 0 5
94 12 5 5 5 5 5 5 5 5 32 94 97 53 10 24 100 100 100 98 45 5 5 1 2 5 5 66 26 23 5 3 96 100 5 5 2 6
7 5 5 5 5 5 5 5 5 5 5 5 7 17 59 48 100 100 100 88 91 51 100 54 0 4 5 65 10 5 1 95 99 100 91 38 4 40
5 6 26 6 5 5 5 5 5 5 5 4 4 6 4 5 98 100 100 100 10 100 100 99 5 5 12 52 18 1 5 98 47 28 42 5 8 36
100 100 53 100 82 24 28 73 98 96 99 100 64 36 1 5 42 99 100 84 98 100 67 100 54 96 10 100 27 5 1 4 1 5 68 5 26 80
65 44 100 91 47 41 37 38 19 5 30 99 98 93 95 100 60 62 100 100 100 100 26 100 100 100 84 8 11 5 5 5 5 5 58 5 29 98
22 100 100 90 38 6 35 5 5 6 86 100 100 100 52 100 100 99 100 100 100 48 95 100 99 87 94 69 5 5 4 5 6 3 47 70 18 12
99 100 93 52 25 35 56 42 22 9 31 100 90 100 98 89 100 100 100 100 83 70 53 100 85 99 63 20 6 5 5 3 9 81 42 6 8 100
100 95 58 44 48 100 67 7 94 100 100 77 98 100 100 87 88 100 100 94 100 94 94 100 98 100 100 27 5 5 22 90 13 67 7 5 96 100
72 10 31 86 100 84 8 20 74 53 85 95 100 100 98 73 66 100 96 99 86 100 80 100 99 100 94 30 30 5 27 79 99 51 41 22 99 100
5 26 50 100 75 5 65 92 75 92 96 80 100 100 100 100 100 99 99 86 78 99 100 100 99 100 95 58 42 60 94 94 9 61 73 100 100 100
88 94 100 93 5 70 100 100 100 100 98 97 100 100 100 100 100 100 93 100 97 98 100 100 100 100 64 41 12 5 12 37 83 60 16 100 100 100
100 100 95 23 32 93 75 100 100 96 100 100 100 100 100 98 87 98 100 98 98 98 100 100 100 100 72 63 8 45 28 74 69 90 36 100 100 100
100 100 88 70 93 100 100 100 100 100 100 100 100 100 100 100 100 100 100 100 100 100 99 100 97 100 54 59 8 60 38 86 90 61 66 72 69 100
100 89 40 90 97 100 100 100 100 99 100 100 100 100 100 100 94 98 100 99 100 100 100 100 81 92 81 56 16 60 87 100 88 96 47 99 48 88
70 100 99 93 100 100 100 94 99 100 100 100 100 100 100 100 100 100 100 100 100 100 100 100 100 83 83 66 32 67 59 100 100 100 79 58 99 31

GFSNE_prec_cloud_051.txt.gz
Cloud_Cover
100 100 100 100 100 100 100 100 93 23 8 31 5 88 43 5 5 5 73 100 99 5 5 5 5 0 0 0 0 0 0 1 5 5 16 56 89 100
100 100 100 100 100 100 100 100 92 49 12 5 5 5 5 5 5 4 5 4 5 5 5 5 3 0 0 0 0 0 0 0 3 5 5 73 100 100
100 100 100 100 100 100 100 82 87 59 16 5 5 5 5 5 1 4 4 39 5 5 5 5 3 1 0 0 0 0 0 0 0 2 5 5 72 100
100 100 100 100 87 93 83 68 32 35 92 13 5 5 5 5 5 6 5 5 5 5 5 5 5 2 0 0 0 0 0 0 0 1 5 5 5 87
100 100 100 100 73 49 100 100 100 100 100 97 8 5 5 97 100 100 79 98 100 32 68 100 5 3 0 4 0 0 0 0 0 5 5 4 5 5
100 100 100 96 92 100 21 5 9 14 6 5 23 25 53 42 93 34 71 82 35 100 100 19 5 5 5 2 0 0 0 0 5 53 5 46 99 53
100 100 73 84 70 7 7 5 5 5 5 50 5 95 6 5 12 22 16 100 100 100 100 67 81 9 0 0 0 0 3 4 5 5 5 5 5 5
58 76 100 25 5 5 30 5 5 32 99 88 13 71 18 38 7 24 100 100 100 95 100 90 81 92 1 31 0 0 5 5 5 5 20 1 72 100
92 67 22 32 53 62 5 29 99 100 100 98 100 59 45 20 99 41 38 96 98 100 100 100 100 34 68 20 5 32 92 5 5 0 5 5 59 100
86 5 41 11 14 13 37 64 93 90 78 100 64 66 28 17 15 5 8 26 84 100 100 100 64 12 100 35 75 20 5 5 5 5 6 5 53 91
100 58 5 72 5 52 14 29 63 100 100 59 62 9 22 59 52 99 78 84 94 100 100 100 99 46 75 93 96 61 8 5 5 58 14 4 5 30
12 5 5 47 100 81 17 80 100 94 16 31 34 23 100 46 12 40 100 100 98 98 84 100 44 21 38 98 58 100 12 48 5 2 3 32 64 83
81 84 64 97 88 6 99 100 70 39 70 36 15 99 9 37 17 98 100 90 100 98 100 100 24 22 5 5 16 100 49 11 5 5 5 5 83 95
100 81 98 100 92 98 100 100 22 70 70 79 100 66 57 6 5 13 84 73 100 94 100 100 76 44 81 66 10 92 84 5 5 5 60 41 98 7
99 95 77 95 100 100 100 88 65 80 100 100 93 29 96 99 97 97 100 100 100 100 100 100 70 88 60 99 62 98 6 13 7 63 6 8 6 30
100 100 95 99 100 100 100 100 100 100 100 100 100 87 81 92 100 100 100 100 92 56 87 100 98 73 70 28 10 58 5 22 5 8 77 9 86 99
100 100 100 100 100 100 100 100 100 100 99 99 98 100 95 100 99 97 97 96 100 100 72 91 83 100 78 90 100 12 46 5 36 32 22 9 64 100
100 100 100 100 100 100 100 100 100 95 52 99 100 100 100 100 100 100 100 90 100 80 83 100 100 100 76 100 52 35 5 5 8 81 88 43 80 99
100 100 100 100 100 100 100 100 99 93 76 95 100 100 100 100 100 94 100 100 100 100 99 100 100 85 74 100 53 64 14 57 13 96 53 27 100 99
100 100 100 100 100 100 100 98 100 99 99 93 90 100 100 100 100 99 99 81 92 100 100 88 88 70 98 100 98 31 5 25 74 87 67 29 100 100
100 100 100 100 100 100 99 64 77 58 88 29 76 100 100 100 100 100 100 98 100 100 94 70 100 88 99 93 98 12 28 15 96 97 75 85 75 91
100 100 100 100 100 100 69 96 5 34 100 84 100 100 100 100 100 100 100 100 100 99 86 100 99 99 100 100 58 50 48 89 84 100 81 76 64 83
100 100 100 100 92 62 99 32 7 100 75 100 100 75 100 100 100 100 100 100 100 100 100 100 100 100 100 100 65 66 49 50 100 100 92 73 90 42

GFSNE_prec_cloud_057.txt.gz
Cloud_Cover
100 100 100 100 100 100 100 100 100 100 100 100 100 95 39 74 96 8 5 31 5 5 5 5 7 39 6 90 8 5 2 4 5 0 0 5 5 5
100 100 100 100 99 100 100 100 100 100 100 100 100 94 94 79 38 5 5 5 5 5 5 16 95 35 98 61 45 80 18 53 13 1 0 5 5 5
100 100 100 100 100 99 78 100 100 100 100 100 98 99 15 6 15 8 19 20 5 80 78 100 100 100 100 100 100 100 100 100 75 60 2 2 5 5
100 100 100 100 100 99 100 100 100 100 72 94 81 5 29 85 83 30 5 5 27 5 41 100 100 100 100 100 100 96 100 100 100 96 70 14 1 5
100 100 100 98 86 100 100 100 100 100 41 86 100 74 94 64 85 21 43 33 15 16 100 100 100 99 98 19 73 86 100 100 100 100 100 96 3 0
100 100 100 99 98 100 100 100 92 45 96 97 100 100 100 55 29 11 11 10 50 98 61 84 97 98 87 45 79 100 100 100 100 100 96 70 3 1
100 100 100 100 100 100 100 91 84 42 88 72 16 6 89 69 97 66 5 9 100 100 5 48 96 11 72 100 7 94 100 100 100 100 100 87 5 0
74 94 100 100 100 100 95 100 41 42 8 6 61 76 54 82 52 8 43 87 100 100 25 35 100 74 79 5 5 98 100 100 100 100 100 28 2 1
100 100 100 100 100 100 96 35 13 28 35 50 42 78 65 73 67 11 36 100 100 100 84 83 100 100 60 5 5 73 100 100 100 100 100 40 5 5
100 100 100 100 100 75 75 98 95 81 67 12 22 44 42 30 93 52 15 100 100 100 100 98 97 44 5 54 40 97 100 100 100 100 80 42 5 5
100 99 98 90 43 18 78 95 100 100 100 100 100 100 100 100 100 93 100 100 100 100 100 100 100 60 27 9 84 99 100 100 100 95 100 5 3 3
26 12 92 79 98 100 99 100 100 100 100 100 100 100 100 100 100 100 100 100 100 100 100 100 89 100 100 5 100 90 64 100 100 100 66 5 3 4
13 55 100 100 100 100 97 100 90 100 100 100 93 95 100 100 100 100 100 100 100 100 100 100 82 84 100 100 90 89 100 100 99 94 14 5 5 5
100 100 100 95 100 100 100 100 100 100 100 100 42 67 100 100 100 100 100 100 100 100 100 100 100 97 100 100 100 100 100 89 54 5 5 5 29 5
100 99 100 100 100 100 100 100 100 100 100 78 99 100 100 100 100 100 100 100 100 100 100 100 100 99 100 100 100 97 92 67 5 5 5 43 92 31
100 100 100 100 100 100 100 100 100 100 100 100 89 100 100 100 100 100 100 100 99 77 100 100 100 100 100 100 100 98 85 87 5 60 33 98 57 70
100 100 100 100 100 100 100 100 100 100 100 92 100 100 100 100 100 100 100 100 100 97 94 100 100 96 100 100 95 60 98 77 9 79 100 78 59 11
100 100 100 100 100 100 100 100 100 100 100 100 100 100 100 100 100 100 98 100 100 84 100 100 100 100 100 93 71 100 88 64 87 95 88 77 49 72
100 100 100 100 100 100 100 100 100 100 100 100 100 100 100 100 100 99 100 100 100 100 100 100 100 100 100 100 100 57 52 90 95 61 64 48 59 36
100 100 100 100 100 100 100 100 100 100 100 100 100 100 100 100 100 100 100 100 100 100 100 100 100 100 100 100 100 100 64 100 99 37 50 80 63 23
100 100 100 100 100 100 100 100 100 100 100 100 100 98 94 98 100 100 100 100 100 100 100 100 100 100 100 100 100 100 85 100 100 90 83 98 92 70
100 100 100 100 100 100 100 100 100 100 100 100 89 81 92 89 100 100 100 100 100 100 100 100 96 100 100 100 100 97 60 90 100 95 100 67 75 67
100 100 100 100 100 100 100 100 100 100 76 71 57 89 83 100 100 100 100 100 100 100 100 100 98 100 100 100 100 100 100 100 100 100 100 99 98 100

GFSNE_prec_cloud_063.txt.gz
Cloud_Cover
98 100 100 99 100 97 81 100 100 100 100 92 83 7 78 95 83 76 100 100 36 17 38 100 100 100 100 100 100 100 95 100 29 54 57 22 54 97
100 100 100 100 100 100 100 100 100 100 100 49 66 97 100 100 34 100 85 83 25 85 100 100 100 100 87 86 74 59 100 100 100 78 62 7 97 100
100 100 100 100 100 100 100 100 100 87 87 75 100 99 100 80 100 96 87 38 87 100 94 99 83 31 11 5 5 21 56 100 100 9 5 5 18 100
100 100 100 100 100 100 100 100 100 59 95 100 100 100 75 100 100 67 31 77 67 38 12 86 98 42 54 54 79 28 62 100 14 12 90 40 50 100
100 100 100 100 100 99 100 100 100 99 100 95 100 100 100 100 88 92 94 40 94 92 100 100 100 63 64 5 6 85 93 100 62 49 86 10 100 100
100 100 100 100 100 100 100 100 100 100 100 100 100 100 100 100 100 100 98 99 90 100 100 100 87 93 94 45 100 100 70 36 72 91 10 88 43 51
100 100 100 100 100 100 100 100 100 100 100 100 100 100 100 100 97 100 100 71 100 100 100 100 98 100 94 100 100 100 100 100 92 21 18 5 38 76
100 100 100 100 100 100 100 100 100 100 100 100 100 100 100 100 100 77 30 75 85 86 82 100 99 100 72 85 100 100 100 49 5 5 8 30 100 100
100 100 100 100 100 100 100 100 100 100 100 100 100 97 98 100 57 99 86 75 84 97 65 61 100 87 100 100 100 100 30 86 5 5 33 93 100 100
100 100 100 100 100 100 100 100 100 100 100 100 100 100 100 99 99 82 100 74 87 98 100 55 100 100 100 100 100 75 5 5 8 9 98 100 100 100
100 100 100 100 100 100 100 100 100 100 100 100 100 100 100 97 97 98 73 49 90 100 100 100 100 38 75 100 55 18 5 5 7 94 100 95 100 98
100 100 100 100 100 100 100 100 100 100 100 100 100 100 100 100 100 100 100 100 100 100 100 100 99 50 40 9 29 69 7 5 5 34 98 100 82 86
100 100 100 100 100 100 100 100 100 100 100 100 100 100 100 100 100 100 100 100 100 100 100 72 83 95 99 71 60 100 77 29 97 99 100 76 100 88
100 100 100 100 100 100 100 100 100 100 100 100 100 100 100 100 100 100 100 100 100 100 100 100 94 99 100 100 97 95 99 96 62 93 99 66 49 63
100 100 100 100 100 100 100 100 100 100 100 100 100 100 100 100 100 100 100 100 100 100 100 100 100 100 100 100 86 100 100 92 36 71 98 99 9 5
100 100 100 100 100 100 100 100 100 100 100 100 100 100 100 100 100 100 100 100 100 100 100 100 100 100 100 100 100 100 100 100 94 99 95 86 5 5
100 100 100 100 100 100 100 100 100 100 100 100 100 100 100 100 100 100 100 100 100 100 100 100 100 100 100 100 100 100 100 100 100 100 86 85 65 5
100 100 100 100 100 100 100 100 100 100 100 100 100 100 100 100 100 100 100 100 100 100 100 100 100 100 99 75 95 98 100 100 100 100 100 99 99 40
100 100 100 100 100 100 100 100 100 100 100 100 100 100 100 100 100 100 100 100 100 100 100 100 100 100 100 100 95 100 100 100 100 100 100 99 97 85
100 100 100 100 100 100 100 100 100 100 100 100 100 100 100 100 100 100 100 100 100 91 99 91 93 100 100 100 100 98 100 100 98 100 100 76 82 33
100 100 100 100 100 100 100 100 100 100 100 100 100 100 100 100 100 100 100 100 100 100 100 94 96 96 100 100 100 94 94 100 100 98 93 94 99 94
100 100 100 100 100 100 100 100 100 100 100 100 100 100 100 100 100 100 100 100 100 100 100 100 100 100 100 100 100 100 100 100 98 99 92 100 100 100
100 100 100 100 100 100 100 100 100 100 100 100 100 100 100 100 100 100 100 100 100 100 100 100 100 100 100 100 100 100 100 100 94 93 100 100 100 100

GFSNE_prec_cloud_069.txt.gz
Cloud_Cover
100 100 100 100 100 100 100 90 92 100 100 72 72 40 33 100 9 9 21 29 5 7 30 18 12 15 85 20 100 100 93 100 100 100 100 67 98 17
100 100 100 100 100 100 90 91 94 83 100 100 100 100 100 52 56 100 35 18 100 78 42 85 44 65 57 84 100 99 98 100 100 100 100 59 85 100
100 100 100 100 98 95 100 100 100 100 100 100 100 100 100 100 99 100 100 80 95 100 100 98 52 98 100 99 100 100 100 100 100 100 50 100 100 98
100 100 100 99 93 100 100 100 100 100 100 100 100 100 100 99 100 73 100 89 100 100 100 100 100 100 100 100 100 100 100 100 100 39 98 100 10 5
100 62 75 94 100 100 100 100 100 100 100 100 100 100 100 100 100 100 100 100 100 100 100 100 100 100 100 100 100 100 100 100 98 85 79 17 31 6
5 43 86 97 100 78 100 100 100 100 100 100 100 100 100 100 100 100 100 100 100 100 96 100 100 100 100 100 100 100 100 100 38 100 100 98 9 5
100 90 59 75 100 100 100 100 100 100 100 100 100 100 100 100 100 100 100 100 100 100 100 100 100 100 100 100 100 100 100 100 99 83 56 36 83 18
86 32 99 100 100 100 100 100 100 100 100 100 100 100 100 100 100 100 100 100 100 100 100 100 100 100 100 100 100 100 100 100 72 30 76 100 58 5
20 87 98 100 100 100 100 100 100 100 100 100 100 100 100 100 100 100 100 100 100 100 100 100 100 100 100 100 100 100 100 100 100 100 100 100 67 68
100 100 100 100 100 100 100 100 100 100 100 100 100 100 100 100 100 100 100 100 100 100 100 100 100 100 96 72 100 100 100 100 100 100 100 91 100 66
100 100 100 100 100 100 100 100 100 100 100 100 100 100 100 100 100 100 100 100 100 100 100 100 100 100 99 89 100 100 100 100 100 100 100 100 100 25
100 100 100 100 100 100 100 100 100 100 100 100 100 100 100 100 100 100 100 100 100 100 100 100 100 94 75 100 100 100 100 100 100 100 63 17 56 65
100 100 100 100 100 100 100 100 100 100 100 100 100 100 100 100 100 100 100 100 100 100 100 100 48 97 100 62 99 100 100 100 100 100 100 71 85 13
100 100 100 100 100 100 100 100 100 100 100 100 100 100 100 100 100 100 100 100 100 100 100 100 100 100 99 89 93 100 100 100 100 100 100 100 43 5
100 100 100 100 100 100 100 100 100 100 100 100 100 100 100 100 100 100 100 100 100 100 100 100 100 100 100 94 100 100 100 100 100 100 100 100 90 34
100 100 100 100 100 100 100 100 100 100 100 100 100 100 100 100 100 100 100 100 100 100 100 100 100 100 100 100 100 100 100 100 100 100 94 100 100 100
100 100 100 100 100 100 100 100 100 100 100 100 100 100 100 100 100 100 100 100 100 100 100 100 100 100 100 100 100 100 100 100 100 64 6 100 88 85
100 100 100 100 100 100 100 100 100 100 100 100 100 100 100 100 100 100 100 100 100 100 100 100 100 100 100 100 100 100 100 100 100 89 45 99 99 88
100 100 100 100 100 100 100 100 100 97 100 100 100 100 100 100 100 100 100 100 100 100 100 100 100 100 89 19 86 98 96 95 22 5 5 100 100 100
100 100 100 100 100 100 100 100 100 100 100 100 100 100 100 100 100 100 100 100 100 100 100 100 100 100 100 98 83 43 0 1 21 88 78 100 98 86
100 100 100 100 100 100 100 100 100 100 100 100 100 100 100 100 100 100 100 100 98 100 100 100 100 95 42 17 44 33 45 94 100 98 98 100 100 100
100 100 100 100 100 100 100 100 100 100 100 100 100 100 100 100 100 100 100 100 100 100 100 100 100 100 100 100 99 66 42 37 30 46 100 100 100 100
100 100 100 100 100 100 100 100 100 100 100 100 100 100 100 100 100 100 100 100 100 100 100 100 100 100 100 100 100 100 99 87 88 82 89 86 100 100

GFSNE_prec_cloud_072.txt.gz
Cloud_Cover
100 100 100 100 100 100 100 100 100 100 100 99 7 63 36 56 96 100 100 100 97 100 100 100 49 82 100 100 100 100 100 100 90 98 100 100 36 37
100 100 100 100 100 100 100 100 100 76 86 100 92 76 96 100 74 100 100 100 100 100 100 100 75 100 100 100 100 100 100 100 100 100 100 72 81 100
100 100 100 100 100 100 100 100 100 70 100 84 100 100 100 100 100 100 100 100 100 100 100 100 100 100 100 100 100 100 100 100 100 100 93 95 100 100
100 100 100 100 100 100 100 87 94 99 100 100 100 100 100 100 100 100 100 100 100 100 100 100 100 100 100 100 100 100 100 100 100 100 100 100 100 100
64 40 75 95 100 86 100 99 93 100 100 100 100 100 100 100 99 98 100 100 100 100 100 100 100 100 100 100 100 100 100 100 100 100 100 100 100 100
66 56 78 89 42 100 100 99 100 100 100 100 100 100 100 100 96 100 100 100 100 100 100 100 100 100 100 100 100 100 100 100 100 100 100 100 100 75
47 5 5 5 55 100 95 100 100 100 100 100 100 100 100 100 100 100 100 100 100 100 100 100 100 100 100 100 100 100 100 100 100 100 100 100 100 100
5 47 25 21 18 13 100 100 100 100 100 100 100 100 100 100 100 100 100 100 100 100 100 100 100 100 100 100 100 100 100 100 100 100 100 100 100 100
48 93 88 34 19 100 98 100 100 100 100 100 100 100 100 100 100 100 100 100 100 100 100 100 100 100 100 100 100 100 100 100 100 100 100 100 100 81
73 93 87 88 100 99 100 100 100 100 100 100 100 100 100 100 100 100 100 100 100 100 100 100 100 100 100 100 100 100 100 100 100 100 100 100 100 53
100 100 100 100 100 100 100 100 100 100 100 100 100 100 100 100 100 100 100 100 100 100 100 100 100 100 100 100 100 100 100 100 100 100 100 95 81 100
100 100 100 100 100 100 100 100 100 100 100 100 100 100 100 100 100 100 100 100 100 100 100 100 100 100 100 100 100 100 100 100 100 100 91 98 97 87
100 100 100 100 100 100 100 100 100 100 100 100 100 100 100 100 100 100 100 100 100 100 100 100 100 100 100 100 100 100 100 100 99 100 100 100 100 100
100 100 100 100 100 100 100 100 100 100 100 100 100 100 100 100 100 100 100 100 100 100 100 100 100 100 100 100 100 100 60 6 5 87 100 100 100 100
100 100 100 100 100 100 100 100 100 100 100 100 100 100 100 100 100 100 100 100 100 100 100 100 100 99 98 26 29 95 100 99 86 84 100 100 98 100
100 100 100 100 100 100 100 100 100 100 100 100 100 100 100 100 100 100 100 100 99 100 100 98 80 70 25 100 90 84 100 43 93 13 78 56 5 18
100 100 100 100 100 100 100 100 100 100 100 100 100 100 100 100 100 100 100 100 100 100 98 100 100 100 100 100 100 100 46 10 48 60 100 62 14 80
100 100 100 100 100 100 100 100 100 100 100 100 100 100 100 100 100 100 98 85 97 100 100 100 100 100 100 76 100 84 53 100 100 100 72 45 5 4
100 100 100 100 100 100 100 100 100 100 100 100 100 100 100 100 100 100 100 100 100 100 92 85 86 89 30 34 42 85 92 24 5 5 5 16 90 37
100 100 100 100 100 100 100 100 100 100 100 100 100 100 100 100 100 100 100 100 100 100 100 36 49 94 100 99 73 58 5 2 13 38 52 40 79 97
100 100 100 100 100 100 100 100 100 100 100 100 100 100 100 100 100 99 99 100 92 96 100 100 85 71 77 54 41 4 3 5 98 100 100 70 7 91
100 100 100 100 100 100 100 100 100 100 100 100 100 100 100 100 87 89 97 100 100 100 100 92 7 43 96 100 100 71 6 5 7 82 100 97 100 100
100 100 100 100 100 100 100 100 100 100 100 100 100 54 26 88 92 96 100 100 100 93 89 100 100 99 100 100 100 100 65 5 56 34 100 100 100 100

GFSNE_prec_cloud_075.txt.gz
Cloud_Cover
100 100 100 100 100 100 100 100 100 100 100 100 100 100 100 100 91 8 19 98 100 100 100 100 100 100 100 52 52 35 10 17 100 100 100 100 100 78
100 100 100 100 100 100 100 100 98 100 100 100 100 100 100 14 40 73 96 100 100 100 100 100 100 99 100 100 100 91 100 100 100 100 100 100 100 81
100 100 100 100 100 100 100 100 100 100 100 100 100 97 31 6 32 86 100 100 100 100 100 100 100 100 100 100 100 100 95 91 100 100 100 100 84 100
96 100 100 100 100 100 100 100 100 100 28 46 68 8 18 31 63 98 100 100 100 100 100 100 100 100 100 100 100 100 100 100 100 100 100 100 100 100
100 100 100 100 100 100 100 100 48 95 45 97 98 100 100 100 93 100 100 100 100 100 100 100 100 100 100 100 100 100 100 100 100 100 100 100 100 100
5 10 27 37 52 28 8 62 95 94 84 100 99 100 100 99 100 100 100 100 100 100 100 100 100 100 100 100 100 100 100 100 100 100 100 100 100 85
1 2 5 18 98 100 59 68 87 88 100 100 100 100 100 100 100 100 100 100 100 100 100 100 100 100 100 100 100 100 100 100 100 100 100 100 100 100
100 100 51 7 4 74 69 68 100 100 100 95 100 100 100 100 100 100 100 100 100 100 100 100 100 100 100 100 100 100 100 100 100 100 100 100 100 100
4 18 70 100 100 100 100 100 100 100 100 100 100 100 100 100 100 100 100 100 100 100 100 100 100 100 100 100 100 100 100 100 100 100 100 100 100 100
96 98 98 100 100 100 100 100 100 100 100 100 100 100 100 100 100 100 100 100 100 100 100 100 100 100 100 100 100 100 100 100 100 100 100 100 100 100
100 100 100 100 100 100 100 100 100 100 100 100 100 100 100 100 100 100 100 100 100 100 100 100 100 100 100 100 100 100 100 100 100 100 100 100 100 100
100 100 100 100 100 100 100 100 100 100 100 100 100 100 100 100 100 100 100 100 100 100 100 100 100 100 100 100 100 100 100 100 100 100 100 100 100 100
100 100 100 100 100 100 100 100 100 100 100 100 100 100 100 100 100 100 100 100 100 100 100 100 100 100 100 100 100 100 100 100 100 100 100 100 100 100
100 100 100 100 100 100 100 100 100 100 100 100 100 100 100 100 100 100 100 100 100 100 100 100 100 100 100 100 100 100 100 100 100 100 100 100 100 100
100 100 100 100 100 100 100 100 100 100 100 100 100 100 100 100 100 100 100 100 100 100 100 100 100 100 100 100 96 100 100 100 100 100 100 78 100 100
100 100 100 100 100 100 100 100 100 100 100 100 100 100 100 100 100 100 100 100 100 100 100 100 100 100 100 100 95 100 100 98 100 100 100 99 96 91
100 100 100 100 100 100 100 100 100 100 100 100 100 100 100 100 100 100 100 100 100 100 100 100 100 100 100 100 100 100 100 100 100 100 100 100 60 92
100 100 100 100 100 100 100 100 100 100 100 100 100 100 100 100 100 100 100 100 100 100 100 100 94 99 17 100 100 100 100 100 93 98 100 94 5 5
100 100 100 100 100 100 100 100 100 100 100 100 100 100 100 100 100 100 100 100 100 100 100 100 100 100 100 100 100 100 100 100 40 6 69 70 37 6
100 100 100 100 100 100 100 100 100 100 100 100 100 100 100 100 100 100 100 100 100 100 100 100 88 100 100 94 79 99 19 44 29 34 98 21 43 78
100 100 100 100 100 100 100 100 100 100 100 100 100 100 100 100 100 100 100 100 100 100 97 100 84 60 89 28 52 58 38 4 8 48 22 66 89 44
100 100 100 100 100 100 100 100 100 100 100 100 100 100 100 100 100 100 100 100 71 100 100 98 71 28 10 5 5 5 5 2 2 7 93 100 100 98
100 100 100 100 100 100 100 100 100 100 100 100 100 100 100 18 12 85 94 100 91 26 94 42 5 5 5 5 34 35 14 36 56 79 31 78 22 76

GFSNE_prec_cloud_081.txt.gz
Cloud_Cover
100 100 100 100 100 100 100 100 100 100 100 100 100 100 100 100 100 100 100 100 100 100 100 100 100 100 100 48 31 41 100 100 100 100 100 100 100 67
100 100 100 100 100 100 100 100 100 100 100 100 100 100 100 100 100 100 100 100 100 100 100 81 80 79 71 42 100 100 91 100 100 100 100 100 100 100
100 100 100 100 100 100 100 100 100 100 100 100 100 100 100 100 100 100 100 100 100 94 21 29 98 98 100 73 50 86 98 100 100 100 100 100 100 100
100 100 100 100 100 100 100 100 100 100 100 100 100 100 100 100 100 100 99 55 24 17 86 98 100 62 100 100 100 33 99 100 100 100 100 100 100 100
100 100 99 100 100 100 100 100 100 100 100 100 100 100 100 88 5 7 20 74 30 100 96 90 96 100 100 100 100 100 100 100 100 100 100 100 100 100
17 82 98 98 36 22 41 36 45 100 100 100 100 100 94 33 57 86 68 96 99 87 75 62 69 100 100 100 93 100 100 100 100 100 100 100 100 100
33 33 28 5 5 5 28 17 5 33 53 96 100 100 96 100 100 96 94 100 100 100 100 100 100 100 100 100 100 100 100 100 100 100 100 100 100 100
4 3 16 59 34 55 62 47 70 66 62 48 64 99 86 88 31 75 83 99 100 100 100 100 100 100 100 100 100 100 100 100 100 100 100 100 100 100
5 4 5 5 10 8 7 19 24 16 50 58 81 90 87 71 100 100 100 100 100 100 100 100 100 100 100 100 100 100 100 100 100 100 100 100 100 100
30 20 54 76 90 100 100 100 100 100 100 100 100 100 100 100 100 100 100 100 100 100 100 100 100 100 100 100 100 100 100 100 100 100 100 100 100 100
100 100 100 100 100 100 100 100 100 100 100 100 100 100 100 100 100 100 100 100 100 100 100 100 100 100 100 100 100 100 100 100 100 100 100 100 100 100
100 100 100 100 100 100 100 100 100 100 100 100 100 100 100 100 100 100 100 100 100 100 100 100 100 100 100 100 100 100 100 100 100 100 100 100 100 100
100 100 100 100 100 100 100 100 100 100 100 100 100 100 100 100 100 100 100 100 100 100 100 100 100 100 100 100 100 100 100 100 100 100 100 100 100 100
100 100 100 100 100 100 100 100 100 100 100 100 100 100 100 100 100 100 100 100 100 100 100 100 100 100 100 100 100 100 100 100 100 100 100 100 100 100
100 100 100 100 100 100 100 100 100 100 100 100 100 100 100 100 100 100 100 100 100 100 100 100 100 100 100 100 100 100 100 100 100 100 100 100 100 100
100 100 100 100 100 100 100 100 100 100 100 100 100 100 100 100 100 100 100 100 100 100 100 100 100 100 100 100 100 100 100 100 100 100 100 100 100 100
100 100 100 100 100 100 100 100 100 100 100 100 100 100 100 100 100 100 100 100 100 100 100 100 100 100 100 100 100 100 100 100 100 100 100 100 100 100
100 100 100 100 100 100 100 100 100 100 100 100 100 100 100 100 100 100 100 100 100 100 100 100 100 100 100 100 100 100 100 100 100 100 87 11 29 31
100 94 98 98 100 100 100 100 100 100 100 100 100 100 100 100 100 100 100 100 100 100 100 100 100 100 100 100 100 100 40 100 86 83 96 93 100 87
98 100 100 100 100 100 100 100 100 100 100 100 100 100 99 100 100 100 100 100 100 100 100 100 100 100 100 100 100 100 100 96 98 100 100 90 85 69
100 100 100 100 100 100 100 100 100 100 100 100 100 100 100 100 100 100 100 100 100 100 100 100 100 100 100 100 99 100 100 38 21 95 100 100 100 97
96 99 100 100 100 100 100 100 100 100 100 100 100 100 100 100 100 100 100 100 100 89 94 34 38 51 43 21 57 44 8 5 1 5 72 100 100 100
86 98 100 76 90 100 100 100 100 100 99 99 100 100 100 100 100 100 100 100 88 19 17 5 5 5 5 5 10 16 5 5 7 33 5 12 100 100

GFSNE_prec_cloud_087.txt.gz
Cloud_Cover
100 100 100 100 100 100 100 100 100 100 100 100 100 100 100 100 100 100 100 100 100 100 100 100 100 100 100 100 100 100 86 94 83 66 85 67 100 67
100 100 100 100 100 100 100 100 100 100 99 100 100 100 100 100 100 100 100 100 100 100 100 93 100 100 100 100 100 100 68 16 29 79 100 100 100 100
100 100 100 100 100 100 100 100 100 100 100 100 100 100 100 100 100 100 100 100 100 100 100 100 100 100 100 98 100 100 5 78 100 100 100 100 100 100
100 100 100 100 100 100 100 100 100 100 100 100 100 88 44 66 77 100 100 100 80 98 100 100 100 97 100 100 93 99 100 100 100 53 100 100 99 100
100 100 100 100 100 100 100 100 97 100 100 100 57 40 36 26 12 14 5 6 23 74 99 98 92 92 100 100 100 100 100 100 100 100 100 100 100 100
100 100 100 100 100 100 100 100 99 95 97 100 100 100 97 54 78 73 68 96 92 18 60 100 96 99 58 93 100 81 89 74 86 100 100 100 97 94
100 100 100 39 58 31 75 36 79 94 96 100 100 95 61 84 99 100 96 100 100 94 36 100 71 83 91 95 99 100 100 100 99 100 100 100 100 100
100 97 100 90 68 89 100 100 100 100 100 100 100 100 100 100 100 100 100 100 100 100 100 100 100 100 100 100 100 100 100 100 100 100 100 100 100 100
100 100 100 100 100 100 98 100 100 100 100 100 100 100 100 100 100 100 100 100 100 100 100 100 100 100 100 100 100 100 100 100 100 100 100 100 100 100
100 100 100 100 100 100 100 100 100 100 100 100 100 100 100 100 100 100 100 100 100 100 100 100 100 100 100 100 100 100 100 100 100 100 100 100 100 100
100 100 100 100 100 100 100 100 100 100 100 100 100 100 100 100 97 100 100 100 100 100 100 100 100 100 100 100 100 100 100 100 100 100 100 100 100 100
100 100 100 100 100 100 100 100 100 100 100 100 100 100 100 100 100 100 100 100 100 100 100 100 100 100 100 100 100 100 100 100 100 100 100 100 100 100
100 100 100 100 100 100 100 100 100 100 100 100 100 100 100 100 100 100 100 100 100 100 100 100 100 100 100 100 100 100 100 100 100 100 100 100 100 100
100 100 100 100 92 100 100 100 100 100 100 100 100 100 100 99 100 100 100 100 100 100 100 100 100 100 100 100 100 100 100 100 100 100 100 100 100 100
83 97 99 100 100 97 88 100 100 80 99 100 98 98 100 100 100 100 100 100 100 100 100 100 100 100 100 100 100 100 100 100 100 100 100 100 100 100
100 100 100 100 100 97 92 86 95 99 94 100 100 100 94 82 74 68 46 83 57 59 90 100 100 100 100 100 100 100 100 100 100 100 100 99 86 64
88 82 81 96 100 94 97 100 100 100 98 100 99 82 16 40 9 27 9 18 48 22 45 65 83 100 99 100 100 100 94 94 100 100 100 100 100 100
86 95 100 100 100 100 100 100 86 32 44 18 7 5 5 5 5 7 7 5 9 35 46 55 66 62 84 100 100 100 100 100 100 100 100 70 99 100
94 100 100 100 99 100 78 21 5 5 5 5 5 7 5 5 5 5 5 5 5 5 5 5 5 5 68 100 97 96 100 100 100 100 100 100 100 100
100 100 100 100 88 25 7 6 6 8 5 5 6 34 61 5 5 5 5 5 5 5 5 5 15 72 90 97 100 99 100 100 100 100 100 100 100 94
95 97 100 100 93 79 99 93 82 54 55 66 38 39 95 30 18 5 15 5 5 5 5 5 5 5 5 23 72 83 58 16 40 83 99 96 29 18
81 69 89 97 100 99 100 98 71 53 24 18 82 84 93 94 79 48 17 23 5 5 23 42 35 22 32 71 70 66 90 66 6 5 65 92 100 98
89 80 100 100 100 97 74 66 5 14 5 5 5 18 81 67 70 72 73 66 52 61 70 50 93 68 72 100 65 48 73 24 51 6 5 63 100 100